When you browse on this site, cookies collect data to enhance your experience and personalize the content and advertising you see.
Visit our Privacy Policy to learn more. By continuing to use the site, you agree to this use of cookies and data.
  • In Austria
  • List of Countries
  • For 7 days
  • Water Temperature
  • Satellite Maps
  • Weather Map
  • News
  • Weather Widgets
  • user-avatar
    Login

    Hourly Weather Mayrhofen

    Today, 20 July, Saturday

    Time Temperature Precipitation Wind Pressure Humidity
    00:00 +10°C° 0 mm 1 mps 619 mmHg 92%
    01:00 +9°C° 0 mm 2 mps 620 mmHg 91%
    02:00 +9°C° 0 mm 2 mps 619 mmHg 92%
    03:00 +9°C° 0 mm 2 mps 619 mmHg 92%
    04:00 +9°C° 0 mm 1 mps 619 mmHg 92%
    05:00 +10°C° 0 mm 2 mps 620 mmHg 90%
    06:00 +13°C° 0 mm 2 mps 621 mmHg 87%
    07:00 +15°C° 0 mm 1 mps 622 mmHg 84%
    08:00 +18°C° 0.1 mm 1 mps 622 mmHg 76%
    09:00 +20°C° 0.1 mm 1 mps 623 mmHg 68%
    10:00 +21°C° 0.1 mm 1 mps 623 mmHg 60%
    11:00 +22°C° 0.5 mm 1 mps 624 mmHg 56%
    12:00 +23°C° 0.5 mm 1 mps 624 mmHg 53%
    13:00 +23°C° 0.5 mm 1 mps 624 mmHg 50%
    14:00 +23°C° 0.8 mm 1 mps 624 mmHg 52%
    15:00 +22°C° 0.8 mm 1 mps 624 mmHg 55%
    16:00 +22°C° 0.8 mm 1 mps 624 mmHg 57%
    17:00 +20°C° 2.3 mm 1 mps 623 mmHg 68%
    18:00 +17°C° 2.3 mm 2 mps 622 mmHg 78%
    19:00 +15°C° 2.3 mm 2 mps 622 mmHg 89%
    20:00 +14°C° 0.7 mm 1 mps 622 mmHg 90%
    21:00 +12°C° 0.7 mm 1 mps 621 mmHg 91%
    22:00 +11°C° 0.7 mm 1 mps 621 mmHg 92%
    23:00 +11°C° 0 mm 1 mps 621 mmHg 90%

    Tomorrow, 21 July, Sunday

    Time Temperature Precipitation Wind Pressure Humidity
    00:00 +11°C° 0 mm 1 mps 622 mmHg 88%
    01:00 +11°C° 0 mm 1 mps 622 mmHg 86%
    02:00 +11°C° 0 mm 1 mps 622 mmHg 86%
    03:00 +11°C° 0 mm 1 mps 621 mmHg 85%
    04:00 +12°C° 0 mm 1 mps 621 mmHg 85%
    05:00 +13°C° 0 mm 1 mps 622 mmHg 82%
    06:00 +14°C° 0 mm 1 mps 623 mmHg 79%
    07:00 +14°C° 0 mm 0 mps 623 mmHg 76%
    08:00 +18°C° 0.3 mm 1 mps 624 mmHg 72%
    09:00 +19°C° 0.3 mm 1 mps 625 mmHg 69%
    10:00 +19°C° 0.3 mm 2 mps 625 mmHg 65%
    11:00 +19°C° 0.9 mm 2 mps 625 mmHg 69%
    12:00 +19°C° 0.9 mm 2 mps 625 mmHg 72%
    13:00 +19°C° 0.9 mm 2 mps 625 mmHg 75%
    14:00 +19°C° 1.1 mm 2 mps 625 mmHg 76%
    15:00 +18°C° 1.1 mm 2 mps 625 mmHg 77%
    16:00 +18°C° 1.1 mm 2 mps 625 mmHg 79%
    17:00 +17°C° 0.4 mm 2 mps 625 mmHg 82%
    18:00 +17°C° 0.4 mm 2 mps 625 mmHg 85%
    19:00 +16°C° 0.4 mm 2 mps 625 mmHg 88%
    20:00 +14°C° 0.1 mm 1 mps 624 mmHg 91%
    21:00 +13°C° 0.1 mm 1 mps 624 mmHg 93%
    22:00 +11°C° 0.1 mm 1 mps 624 mmHg 95%
    23:00 +11°C° 0 mm 1 mps 624 mmHg 94%

    Day after tomorrow, 22 July, Monday

    Time Temperature Precipitation Wind Pressure Humidity
    00:00 +10°C° 0 mm 1 mps 624 mmHg 94%
    01:00 +10°C° 0 mm 1 mps 624 mmHg 94%
    02:00 +10°C° 0 mm 1 mps 623 mmHg 93%
    03:00 +9°C° 0 mm 1 mps 623 mmHg 92%
    04:00 +9°C° 0 mm 1 mps 623 mmHg 91%
    05:00 +11°C° 0 mm 1 mps 624 mmHg 87%
    06:00 +13°C° 0 mm 1 mps 625 mmHg 84%
    07:00 +14°C° 0 mm 1 mps 625 mmHg 81%
    08:00 +16°C° 0 mm 1 mps 626 mmHg 71%
    09:00 +20°C° 0 mm 1 mps 627 mmHg 62%
    10:00 +22°C° 0 mm 1 mps 628 mmHg 53%
    11:00 +23°C° 0 mm 1 mps 628 mmHg 48%
    12:00 +24°C° 0 mm 2 mps 628 mmHg 44%
    13:00 +25°C° 0 mm 2 mps 628 mmHg 40%
    14:00 +24°C° 0 mm 2 mps 628 mmHg 41%
    15:00 +24°C° 0 mm 2 mps 628 mmHg 42%
    16:00 +24°C° 0 mm 2 mps 628 mmHg 43%
    17:00 +21°C° 0 mm 2 mps 627 mmHg 54%
    18:00 +20°C° 0 mm 2 mps 626 mmHg 66%
    19:00 +19°C° 0 mm 1 mps 626 mmHg 77%
    20:00 +16°C° 0 mm 1 mps 625 mmHg 82%
    21:00 +15°C° 0 mm 1 mps 625 mmHg 88%
    22:00 +13°C° 0 mm 1 mps 625 mmHg 94%
    23:00 +11°C° 0 mm 0 mps 624 mmHg 94%

    23 July, Tuesday

    Time Temperature Precipitation Wind Pressure Humidity
    00:00 +11°C° 0 mm 0 mps 624 mmHg 93%
    01:00 +11°C° 0 mm 0 mps 624 mmHg 93%
    02:00 +10°C° 0 mm 0 mps 623 mmHg 93%
    03:00 +10°C° 0 mm 0 mps 623 mmHg 92%
    04:00 +9°C° 0 mm 0 mps 623 mmHg 92%
    05:00 +12°C° 0 mm 0 mps 624 mmHg 85%
    06:00 +14°C° 0 mm 0 mps 625 mmHg 79%
    07:00 +16°C° 0 mm 0 mps 625 mmHg 73%
    08:00 +18°C° 0 mm 0 mps 626 mmHg 64%
    09:00 +22°C° 0 mm 1 mps 627 mmHg 55%
    10:00 +24°C° 0 mm 1 mps 627 mmHg 45%
    11:00 +25°C° 0 mm 1 mps 627 mmHg 42%
    12:00 +25°C° 0 mm 1 mps 627 mmHg 39%
    13:00 +26°C° 0 mm 2 mps 627 mmHg 35%
    14:00 +26°C° 0 mm 2 mps 627 mmHg 36%
    15:00 +26°C° 0 mm 2 mps 627 mmHg 37%
    16:00 +26°C° 0 mm 2 mps 627 mmHg 38%
    17:00 +24°C° 0 mm 2 mps 626 mmHg 49%
    18:00 +22°C° 0 mm 1 mps 625 mmHg 60%
    19:00 +21°C° 0 mm 1 mps 625 mmHg 71%
    20:00 +19°C° 0 mm 1 mps 624 mmHg 76%
    21:00 +15°C° 0 mm 1 mps 624 mmHg 80%
    22:00 +12°C° 0 mm 0 mps 623 mmHg 85%
    23:00 +13°C° 0 mm 1 mps 623 mmHg 86%

    24 July, Wednesday

    Time Temperature Precipitation Wind Pressure Humidity
    00:00 +13°C° 0 mm 1 mps 623 mmHg 86%
    01:00 +13°C° 0 mm 1 mps 623 mmHg 86%
    02:00 +13°C° 0 mm 1 mps 622 mmHg 88%
    03:00 +13°C° 0 mm 1 mps 622 mmHg 90%
    04:00 +13°C° 0 mm 1 mps 622 mmHg 91%
    05:00 +15°C° 0 mm 1 mps 623 mmHg 86%
    06:00 +16°C° 0 mm 0 mps 624 mmHg 80%
    07:00 +17°C° 0 mm 0 mps 624 mmHg 75%
    08:00 +19°C° 0 mm 0 mps 625 mmHg 66%
    09:00 +21°C° 0 mm 0 mps 626 mmHg 56%
    10:00 +25°C° 0 mm 1 mps 626 mmHg 47%
    11:00 +26°C° 0 mm 1 mps 626 mmHg 44%
    12:00 +27°C° 0 mm 1 mps 626 mmHg 41%
    13:00 +27°C° 0 mm 1 mps 626 mmHg 37%
    14:00 +27°C° 0 mm 1 mps 626 mmHg 39%
    15:00 +27°C° 0 mm 1 mps 626 mmHg 40%
    16:00 +27°C° 0 mm 1 mps 626 mmHg 42%
    17:00 +25°C° 0.1 mm 1 mps 625 mmHg 53%
    18:00 +23°C° 0.1 mm 1 mps 624 mmHg 64%
    19:00 +21°C° 0.1 mm 1 mps 624 mmHg 76%
    20:00 +20°C° 0.3 mm 1 mps 623 mmHg 79%
    21:00 +18°C° 0.3 mm 1 mps 623 mmHg 83%
    22:00 +16°C° 0.3 mm 1 mps 623 mmHg 87%
    23:00 +16°C° 0 mm 1 mps 623 mmHg 87%

    25 July, Thursday

    Time Temperature Precipitation Wind Pressure Humidity
    00:00 +16°C° 0 mm 1 mps 623 mmHg 88%
    01:00 +15°C° 0 mm 1 mps 622 mmHg 88%
    02:00 +15°C° 0 mm 1 mps 622 mmHg 89%
    03:00 +15°C° 0 mm 1 mps 622 mmHg 91%
    04:00 +14°C° 0 mm 2 mps 622 mmHg 92%
    05:00 +16°C° 0 mm 2 mps 622 mmHg 89%
    06:00 +17°C° 0 mm 2 mps 623 mmHg 87%
    07:00 +18°C° 0 mm 2 mps 623 mmHg 84%
    08:00 +20°C° 0.1 mm 2 mps 624 mmHg 76%
    09:00 +23°C° 0.1 mm 2 mps 624 mmHg 67%
    10:00 +25°C° 0.1 mm 2 mps 625 mmHg 59%
    11:00 +25°C° 0.6 mm 1 mps 625 mmHg 55%
    12:00 +26°C° 0.6 mm 1 mps 625 mmHg 52%
    13:00 +27°C° 0.6 mm 1 mps 625 mmHg 48%
    14:00 +26°C° 1.1 mm 1 mps 625 mmHg 50%
    15:00 +26°C° 1.1 mm 1 mps 624 mmHg 51%
    16:00 +26°C° 1.1 mm 1 mps 624 mmHg 53%
    17:00 +24°C° 0.8 mm 1 mps 623 mmHg 62%
    18:00 +20°C° 0.8 mm 0 mps 623 mmHg 72%
    19:00 +19°C° 0.8 mm 0 mps 622 mmHg 81%
    20:00 +20°C° 0.7 mm 1 mps 622 mmHg 84%
    21:00 +19°C° 0.7 mm 1 mps 622 mmHg 86%
    22:00 +16°C° 0.7 mm 1 mps 622 mmHg 89%
    23:00 +16°C° 0.3 mm 1 mps 621 mmHg 90%
    Show more